Watertown, NY

3:58 AM EST on November 18, 2019 (GMT -0500)
Watertown International

Weather History for KART - September, 2019

Change the Weather History Date:

Thursday, September 5, 2019

  Actual Average Record
Temperature  
Mean Temperature 57 °F 63 °F  
Max Temperature 70 °F 74 °F 93 °F (1973)
Min Temperature 43 °F 52 °F 33 °F (2000)
Degree Days  
Heating Degree Days 8 4  
Month to date heating degree days 14 16  
Since 1 July heating degree days 43 88  
Cooling Degree Days 0 2  
Month to date cooling degree days 4 10  
Year to date cooling degree days 325 334  
Growing Degree Days 6 (Base 50)    
Moisture  
Dew Point 47 °F    
Average Humidity 70    
Maximum Humidity 96    
Minimum Humidity 44    
Precipitation  
Precipitation 0.00 in 0.11 in 2.06 in (1953)
Month to date precipitation 1.48 0.54  
Year to date precipitation 29.57 22.34  
Sea Level Pressure  
Sea Level Pressure 30.11 in    
Wind  
Wind Speed 3 mph (SE)    
Max Wind Speed 10 mph    
Max Gust Speed 14 mph    
Visibility 8 miles    
Events      
T = Trace of Precipitation, MM = Missing Value Source: NWS Daily Summary

Daily Weather History Graph

Daily Weather History Graph

Search for Another Location

Airport or City:

Astronomy

Sep. 05, 2019 Rise Set
Actual Time 6:31 AM EDT 7:33 PM EDT
Civil Twilight 6:02 AM EDT 8:02 PM EDT
Nautical Twilight 5:26 AM EDT 8:37 PM EDT
Astronomical Twilight 4:49 AM EDT 9:14 PM EDT
Moon 1:50 PM EDT (9/5) 11:32 PM EDT (9/5)
Length of Visible Light 14h 00m
Length of Day
13h 01m
Waxing Crescent, 45% of the Moon is Illuminated
Sep 5
Waxing Crescent
Sep 5
First Quarter
Sep 14
Full
Sep 21
Last Quarter
Sep 28
New

Hourly Weather History & Observations

Time (EDT) Temp. Windchill Dew Point Humidity Pressure Visibility Wind Dir Wind Speed Gust Speed Precip Events Conditions
12:56 AM 52.0 °F - 50.0 °F 93% 30.09 in 10.0 mi Calm Calm - N/A   Mostly Cloudy
1:56 AM 52.0 °F - 48.9 °F 89% 30.10 in 10.0 mi ENE 3.5 mph - N/A   Mostly Cloudy
2:56 AM 51.1 °F - 48.9 °F 92% 30.09 in 10.0 mi ENE 4.6 mph - N/A   Mostly Cloudy
3:56 AM 48.9 °F - 46.9 °F 93% 30.08 in 10.0 mi ENE 3.5 mph - N/A   Clear
4:56 AM 46.0 °F - 45.0 °F 96% 30.09 in 6.0 mi Calm Calm - N/A   Clear
5:03 AM 46.0 °F - 44.1 °F 93% 30.10 in 1.5 mi Calm Calm - N/A   Clear
5:14 AM 46.0 °F 44.8 °F 44.1 °F 93% 30.10 in 3.0 mi East 3.5 mph - N/A   Clear
5:38 AM 45.0 °F - 44.1 °F 97% 30.11 in 1.5 mi Calm Calm - N/A   Clear
5:50 AM 44.6 °F - 44.6 °F 100% 30.11 in 4.0 mi Calm Calm - N/A   Clear
5:56 AM 45.0 °F - 43.0 °F 93% 30.11 in 3.0 mi Calm Calm - N/A   Clear
6:01 AM 44.1 °F - 43.0 °F 96% 30.11 in 1.8 mi Calm Calm - N/A   Clear
6:10 AM 44.1 °F 42.5 °F 42.1 °F 93% 30.11 in 0.8 mi ENE 3.5 mph - N/A   Clear
6:14 AM 44.1 °F - 43.0 °F 96% 30.12 in 2.5 mi Calm Calm - N/A   Clear
6:21 AM 45.0 °F - 43.0 °F 93% 30.12 in 10.0 mi Calm Calm - N/A   Clear
6:56 AM 45.0 °F - 43.0 °F 93% 30.13 in 9.0 mi Calm Calm - N/A   Clear
7:56 AM 51.1 °F - 50.0 °F 96% 30.15 in 10.0 mi Calm Calm - N/A   Clear
8:56 AM 57.9 °F - 52.0 °F 81% 30.15 in 10.0 mi Calm Calm - N/A   Clear
9:56 AM 64.0 °F - 46.9 °F 54% 30.15 in 10.0 mi Calm Calm - N/A   Clear
10:56 AM 64.9 °F - 46.0 °F 50% 30.16 in 10.0 mi WSW 3.5 mph - N/A   Clear
11:56 AM 66.0 °F - 48.0 °F 52% 30.15 in 10.0 mi Variable 5.8 mph - N/A   Clear
12:56 PM 66.9 °F - 48.0 °F 51% 30.13 in 10.0 mi West 8.1 mph - N/A   Clear
1:56 PM 68.0 °F - 51.1 °F 55% 30.13 in 10.0 mi Variable 5.8 mph - N/A   Partly Cloudy
2:56 PM 69.1 °F - 46.9 °F 45% 30.09 in 10.0 mi SSW 5.8 mph - N/A   Clear
3:56 PM 69.1 °F - 52.0 °F 54% 30.09 in 10.0 mi WSW 9.2 mph - N/A   Clear
4:56 PM 68.0 °F - 51.1 °F 55% 30.09 in 10.0 mi WSW 5.8 mph - N/A   Clear
6:56 PM 64.0 °F - 54.0 °F 70% 30.09 in 10.0 mi SW 3.5 mph - N/A   Clear
7:56 PM 57.9 °F - 54.0 °F 87% 30.08 in 10.0 mi Calm Calm - N/A   Clear
8:56 PM 54.0 °F - 51.1 °F 90% 30.09 in 10.0 mi Calm Calm - N/A   Clear
9:56 PM 50.0 °F - 48.0 °F 93% 30.08 in 10.0 mi Calm Calm - N/A   Clear
10:56 PM 51.1 °F - 48.9 °F 92% 30.06 in 10.0 mi East 4.6 mph - N/A   Clear
11:56 PM 51.1 °F - 48.9 °F 92% 30.06 in 10.0 mi East 3.5 mph - N/A   Clear